World > North America > United States > Texas > Rusk  

Rusk, TX Hourly Weather Updates

Feedback E-mail the Weather

Quick Clicks

Rusk, TX Weather Maps

°F °C°F °C
Rusk Weather Map
UTC Time: 5/19/2024, 14:22
Your Time:

Rusk, TX Regional Weather

Expires:202405191500;;483364
ASUS44 KFWD 191415
RWRTX 
NORTH TEXAS HOURLY WEATHER ROUNDUP
NATIONAL WEATHER SERVICE FORT WORTH TX
900 AM CDT SUN MAY 19 2024

NOTE: "FAIR" INDICATES FEW OR NO CLOUDS BELOW 12,000 FEET WITH NO
SIGNIFICANT WEATHER AND/OR OBSTRUCTIONS TO VISIBILITY.


TXZ095>097-106>112-122>126-135>138-148>153-164>167-191500-
EAST TEXAS
  
CITY           SKY/WX    TMP DP  RH WIND       PRES   REMARKS
PARIS          FAIR      78  69  73 SE6       30.01R                  
SULPHUR SPRNGS FAIR      81  68  64 SE7       30.02R                  
MOUNT PLEASANT FAIR      76  71  84 SE3       30.01R                  
GILMER         FAIR      77  67  71 CALM      30.01R                  
MINEOLA        FAIR      77  70  78 SE5       30.00R                  
TYLER          FAIR      80  70  71 S6        30.00R                  
LONGVIEW       FAIR      78  71  79 SE6       30.00R                  
ATHENS         FAIR      77  72  83 S6        29.99R                  
PALESTINE      LGT RAIN  79  73  83 VRB6      29.98R VSB 1/4          
JACKSONVILLE   FAIR      77  72  82 S5        30.03R                  
HENDERSON      FAIR      81  71  71 SE3       30.02R                  
CENTER         FAIR      77  70  78 CALM      30.02R                  
LUFKIN         FAIR      78  73  84 S5        30.00R                  
$$

SUPPLEMENTAL OBSERVATIONS (NWS FORT WORTH AREA)
  
CITY           SKY/WX    TMP DP  RH WIND       PRES   REMARKS
$$

SUPPLEMENTAL OBSERVATIONS (NWS NORMAN AREA)
  
CITY           SKY/WX    TMP DP  RH WIND       PRES   REMARKS
GOODLETT         N/A     75  67  76 SE13      29.89                   
ODELL            N/A     78  70  76 SE14      29.92S                  
CROWELL          N/A     76  69  78 SE14      29.91S                  
KNOX CITY        N/A     76  67  73 SE15      29.91                   
SEYMOUR          N/A     77  70  78 SE16      29.92R                  
MILLERS CREEK    N/A     75  68  78 SE16G22     N/A                   
$$

SUPPLEMENTAL OBSERVATIONS (NWS SAN ANGELO AREA)
  
CITY           SKY/WX    TMP DP  RH WIND       PRES   REMARKS
WEINERT          N/A     76  68  76 SE14      29.92S                  
HASKELL          N/A     74  67  79 SE10      29.91                   
THROCKMORTON     N/A     76  71  85 SE12G26   29.94                   
STAMFORD         N/A     76  68  76 SE14      29.93                   
CLYDE            N/A     74  69  84 S12       29.97R                  
HAMBY            N/A     77  68  73 S9G17       N/A                   
$$

SUPPLEMENTAL OBSERVATIONS (NWS SHREVEPORT AREA)
  
CITY           SKY/WX    TMP DP  RH WIND       PRES   REMARKS
TEXARKANA        N/A     81  73  78 SE2         N/A                   
CADDO LAKE       N/A     81  73  78 CALM        N/A                   
LUFKIN           N/A     82  75  78 MISG        N/A                   
N SABINE NF      N/A     81  73  78 MISG        N/A                   
$$

SUPPLEMENTAL OBSERVATIONS ARE A COLLECTION OF AUTOMATED INSTRUMENTS
THAT ARE MAINTAINED BY A VARIETY OF FEDERAL AND STATE AGENCIES. 
CERTAIN ELEMENTS...SUCH AS HUMIDITY VALUES AND SUSTAINED WIND 
SPEEDS...MAY BE APPROXIMATED.

  

SKY/WX - Weather  TMP - Temperature  DP - Dew Point  RH - Humidity
WIND - Wind Direction/Speed PRES - Barometric Pressure VSB - Visibility
WCI - Wind Chill Index E13G22 Wind - East Wind 13 mph/Gusts of 22 mph

Trending Headlines

Trending Entertainment Headlines

Rusk Radar Loop

Use the map search tool if you want to place a location marker on the radar map...

Rusk Quick Facts

National Two Day Weather Forecast


E-mail the Rusk Weather Forecast

Voice your opinion or tell us about page issues...